{"data":{"norad_id":62514,"epoch":"2026-05-24T21:19:28.672320Z","epoch_age_seconds":81124,"freshness":"FRESH","line1":"1 62514U 25004D   26144.88852630  .00196364  00000+0  14978-2 0  9995","line2":"2 62514  43.0014 331.3378 0002264 278.2628  81.7983 15.70841502 79194","mean_motion":15.70841502,"eccentricity":0.0002264,"inclination_deg":43.0014,"raan_deg":331.3378,"arg_perigee_deg":278.2628,"mean_anomaly_deg":81.7983,"bstar":0.0014978,"rev_number":7919,"period_min":91.670610826528,"perigee_km":354.96604884807,"apogee_km":358.01548830169,"semimajor_km":6734.6277685749,"source":"CELESTRAK","updated_at":"2026-05-25T13:38:19.702136Z"}}